Location: Easthampton
(42.2676°N, 72.6690°W)
Time: 04:13:56
(UTC+00:00)

ESTCUBE 1 - Visible Passes

Search period start: 23 March 2023 00:00
Search period end: 02 April 2023 00:00
Orbit: 643 x 654 km, 97.9° (Epoch: 22 March)

Date Brightness Start Highest point End Pass type
(mag) Time Alt. Az. Time Alt. Az. Time Alt. Az.
23 Mar ? 02:16:30 13° N 02:16:30 13° N 02:17:04 10° N visible
24 Mar ? 02:42:47 14° N 02:42:47 14° N 02:43:23 10° N visible
25 Mar ? 01:31:18 10° NNE 01:31:18 10° NNE 01:31:19 10° NNE visible
25 Mar ? 03:09:03 12° NNW 03:09:03 12° NNW 03:09:26 10° NNW visible
26 Mar ? 01:57:34 14° NNE 01:57:34 14° NNE 01:58:19 10° NNE visible
27 Mar ? 02:23:50 16° N 02:23:50 16° N 02:24:50 10° N visible
28 Mar ? 02:50:06 16° NNW 02:50:06 16° NNW 02:51:03 10° NNW visible
29 Mar ? 01:38:36 13° NNE 01:38:36 13° NNE 01:39:18 10° NNE visible
29 Mar ? 03:16:21 14° NNW 03:16:21 14° NNW 03:17:00 10° NNW visible
30 Mar ? 02:04:51 17° NNE 02:04:51 17° NNE 02:06:05 10° N visible
31 Mar ? 02:31:06 19° N 02:31:06 19° N 02:32:28 10° N visible
01 Apr ? 01:19:35 10° NE 01:19:35 10° NE 01:19:41 10° NE visible
01 Apr ? 02:57:20 19° NNW 02:57:20 19° NNW 02:58:35 10° NNW visible
